Вернуться в каталог

KUIPER-00112

АктивенСвязьLEO
NORAD 65150·PAYLOAD·🇺🇸 United States

Запущен Aug 11, 2025 с Cape Canaveral Space Force Station

Loading…

Ближайшие Пролёты (ближайшие 24 часа)

TLE

СвежийSource: CelesTrak SupGP

Эпоха: Sep 14, 2026, 21:48 UTC

1 65150C 25171U   26257.90879630  .00007366  00000+0  96439-3 0  2579
2 65150  51.9021  38.9049 0000602 115.4810 118.3682 14.79919479    18

Отслеживайте KUIPER-00112 в реальном времени с AllMySat

Download on the App Store